This is the latest recevied weather packets stored in our database for station/object SR9NSK-5. If no packets are shown the sender has not sent any weather packets the latest 1 day(s).
| Time | Temp. | Humidity | Pressure | Rain* | Wind** | Luminosity | Snow |
|---|---|---|---|---|---|---|---|
| 1778066807 | 17.78° C | 56% | 902.3 hPa | - | - | - | - |
| 1778066567 | 18.33° C | 56% | 902.3 hPa | - | - | - | - |
| 1778066327 | 18.89° C | 56% | 902.3 hPa | - | - | - | - |
| 1778065845 | 17.78° C | 56% | 902.3 hPa | - | - | - | - |
| 1778065605 | 17.78° C | 56% | 902.2 hPa | - | - | - | - |
| 1778065365 | 17.78° C | 57% | 902.2 hPa | - | - | - | - |
| 1778065123 | 18.33° C | 57% | 902.2 hPa | - | - | - | - |
| 1778064160 | 17.78° C | 58% | 902.3 hPa | - | - | - | - |
| 1778062479 | 17.22° C | 60% | 902.4 hPa | - | - | - | - |
| 1778061756 | 15.56° C | 61% | 902.4 hPa | - | - | - | - |
| 1778060554 | 16.11° C | 60% | 902.2 hPa | - | - | - | - |
| 1778060075 | 16.11° C | 61% | 902.2 hPa | - | - | - | - |
| 1778058872 | 15° C | 63% | 902 hPa | - | - | - | - |
| 1778057899 | 15° C | 63% | 902 hPa | - | - | - | - |
| 1778057659 | 15° C | 63% | 901.8 hPa | - | - | - | - |
| 1778057417 | 15° C | 63% | 901.8 hPa | - | - | - | - |
| 1778057177 | 15° C | 63% | 901.8 hPa | - | - | - | - |
| 1778056937 | 15° C | 63% | 901.8 hPa | - | - | - | - |
| 1778055255 | 13.89° C | 65% | 901.6 hPa | - | - | - | - |
| 1778055013 | 13.89° C | 65% | 901.6 hPa | - | - | - | - |
| 1778054773 | 13.89° C | 65% | 901.6 hPa | - | - | - | - |
| 1778054533 | 13.89° C | 66% | 901.6 hPa | - | - | - | - |
| 1778054293 | 13.89° C | 66% | 901.6 hPa | - | - | - | - |
| 1778054053 | 13.33° C | 66% | 901.5 hPa | - | - | - | - |
| 1778053811 | 13.33° C | 66% | 901.4 hPa | - | - | - | - |
* Rain since midnight (hover to see other rain measurements)
** Current wind speed in m/s (hover to see current wind gust speed)